Location: Crab Orchard
(37.7292°N, 88.8042°W)
Time: 10:05:41
(UTC+00:00)

Cosmos 1536 - Pass Details

Date: 08 December 2019
Orbit: 540 x 559 km, 82.5° (Epoch: 17 January)

Event Time Altitude Azimuth Distance (km) Brightness Sun altitude
Rises 23:20:17 0° 1° (N) 2,731 6.1 -8.7°
Reaches altitude 10° 23:22:35 10° 10° (N) 1,829 5.2 -9.1°
Maximum altitude 23:26:20 38° 79° (ENE) 853 3.3 -9.8°
Drops below altitude 10° 23:30:03 10° 148° (SSE) 1,805 5.3 -10.5°
Sets 23:32:18 0° 156° (SSE) 2,690 6.3 -10.9°
